Regional Weather Roundup
Issued by NWS

Home | Current Version | Previous Version | Graphics & Text | Print | Product List | Glossary Off
Versions: 1 2 3 4 5 6 7 8 9 10 11 12 13 14 15 16 17 18 19 20 21 22 23 24 25 26 27 28 29 30 31 32 33 34 35 36 37 38 39 40 41 42 43 44 45 46 47 48 49 50

681
ASUS43 KMKX 221011
RWRWI

WISCONSIN REGIONAL WEATHER ROUNDUP
NATIONAL WEATHER SERVICE MILWAUKEE/SULLIVAN WI
500 AM CDT FRI SEP 22 2017

NOTE: "FAIR" INDICATES FEW OR NO CLOUDS BELOW 12,000 FEET WITH NO
SIGNIFICANT WEATHER AND/OR OBSTRUCTIONS TO VISIBILITY.

WIZ001-002-006>008-014>016-023>028-221100-
NORTHWEST WISCONSIN

CITY           SKY/WX    TMP DP  RH WIND       PRES   REMARKS
SUPERIOR ARPT  CLOUDY    60  59  98 E7        29.86S
ASHLAND        CLOUDY    66  63  90 S7        29.88R
HAYWARD        PTCLDY    69  65  86 SW6       29.90R
SIREN          CLEAR     73  66  78 S9        29.86S
CUMBERLAND     MOCLDY    68  64  88 SE3       29.90S
RICE LAKE      CLEAR     67  65  91 E3        29.91S
CHETEK         PTCLDY    68  66  95 E8        29.91S
LADYSMITH      CLEAR     70  66  87 SE6       29.95R
EAU CLAIRE     PTCLDY    73  67  81 S12       29.90S
MENOMONIE      PTCLDY    69  67  93 E3        29.90R
NEW RICHMOND   CLEAR     74  67  77 S10       29.87S
OSCEOLA        PTCLDY    75  67  78 SE7       29.87S
$$

WIZ003>005-009-010-017-018-221100-
NORTH CENTRAL WISCONSIN

CITY           SKY/WX    TMP DP  RH WIND       PRES   REMARKS
MANITOWISH WTR PTCLDY    66  66 100 SE7       29.96S
ARBOR VITAE    CLEAR     69  67  91 S5        29.99R
WOODRUFF       CLEAR     69  67  91 S5        29.99R
RHINELANDER    MOCLDY    70  67  90 S6        30.00S
EAGLE RIVER    MOCLDY    67  66  97 S3        29.99S
LAND O LAKES   MOCLDY    68  65  91 CALM      30.01R
PHILLIPS       CLEAR     68  67  96 S7        29.95R
TOMAHAWK       CLEAR     65  63  94 CALM      29.99R
MEDFORD        MOCLDY    66  64  94 S9        29.97S
MERRILL        MOCLDY    68  67  97 S5        29.99S
$$

WIZ029-030-035-036-043>047-221100-
CENTRAL WISCONSIN

CITY           SKY/WX    TMP DP  RH WIND       PRES   REMARKS
WAUSAU         MOCLDY    66  65  96 SE6       29.98S
MOSINEE        PTCLDY    64  64 100 SE6       30.01R
MARSHFIELD     CLOUDY    69  65  86 S7        29.98S
STEVENS POINT  CLEAR     62  62 100 CALM      30.01R
WAUPACA        CLEAR     66  65  99 CALM      30.01R FOG
WAUTOMA        MOCLDY    63  62  97 CALM      30.00S
WISC RAPIDS    CLEAR     67  66  97 S3        30.00R
CAMP DOUGLAS   CLEAR     72  69  89 S7        29.97R
$$

WIZ011>013-019>022-031-037>040-048>050-221100-
NORTHEAST WISCONSIN

CITY           SKY/WX    TMP DP  RH WIND       PRES   REMARKS
ANTIGO         CLEAR     65  65 100 S6        30.02S FOG
SHAWANO        FOG       66  64  95 CALM      30.00S VSB 3/4
OCONTO         PTCLDY    61  60  97 CALM      30.00R
STURGEON BAY   CLEAR     69  67  93 S8        30.00S FOG
GREEN BAY      CLEAR     69  68  96 S5        30.01R FOG
MANITOWOC      CLEAR     65  64  97 SE5       30.03R FOG
APPLETON       CLEAR     68  68 100 CALM      30.00S FOG
CLINTONVILLE   PTCLDY    63  61  94 CALM      30.00S FOG
OSHKOSH        CLEAR     69  67  93 S6        30.01R
$$

WIZ032>034-041-042-053>061-221100-
SOUTHWEST WISCONSIN

CITY           SKY/WX    TMP DP  RH WIND       PRES   REMARKS
LA CROSSE      CLEAR     73  69  87 S6        29.92
SPARTA         CLEAR     73  67  80 CALM      29.96R
VIROQUA        CLEAR     71  69  94 CALM      29.97S
BOSCOBEL       CLEAR     73  68  84 SW3       29.97S
PRAIRIE DU CHI CLEAR     76  66  70 SE6       29.96R
PLATTEVILLE    CLEAR     72  71  96 S7        30.01S
$$

WIZ056-057-062-063-064-067-068-221100-
SOUTH CENTRAL WISCONSIN

CITY           SKY/WX    TMP DP  RH WIND       PRES   REMARKS
REEDSBURG      CLEAR     72  68  87 S7        29.98S
BARABOO/DELLS  CLEAR     74  65  74 S9        29.99S
LONE ROCK      CLEAR     73  68  84 CALM      29.99R
MINERAL POINT  CLEAR     70  70 100 SE7       30.01S
MADISON        CLEAR     73  68  84 S3        30.01R
MIDDLETON      CLEAR     72  67  87 CALM      30.02R
WATERTOWN      CLEAR     69  69 100 CALM      30.02S
MONROE         CLEAR     70  66  88 S12       30.02S
JANESVILLE     CLEAR     72  72 100 S6        30.02S
$$

WIZ051-052-058>065-066-070>072-221100-
SOUTHEAST WISCONSIN

CITY           SKY/WX    TMP DP  RH WIND       PRES   REMARKS
MILWAUKEE      CLEAR     71  69  93 S3        30.04R FOG
WAUKESHA       CLEAR     70  66  88 S6        30.05R
MILWAUKEE/TIMM CLEAR     64  61  88 CALM      30.04S FOG
RACINE         CLEAR     71  70  96 S3        30.06R FOG
BURLINGTON     FOG       62  62 100 CALM      30.05R VSB 1/4
KENOSHA        CLEAR     70  67  90 S5        30.05R
FOND DU LAC    CLEAR     69  65  86 S6        30.02R
SHEBOYGAN      FOG       64  64 100 CALM      30.03R VSB 1/4
WEST BEND      FOG       63  63 100 CALM      30.04R VSB 1/4
JUNEAU         CLEAR     68  66  93 SE5       30.04R
$$

LSZ147-162-221100-
LAKE SUPERIOR

STATION/POSITION TIME  TEMP    WIND        PRES    WAVE
                       AIR SEA DIR/SP/G            HT/PER
                 (UTC) (F)     (DEG/KT/KT) (MB)    (FT/S)
W MID LAKE BUOY  0950   60 55  100/  4/  6 1012.1R   1/ 4
DEVILS ISLAND    1000   62      70/  5/  5 1011.6R
PORT WING        0900   61     340/  3/ 22 1011.9
SAXON HARBOR     0940   77     190/  9/ 19 1011.2R
$$

LMZ867-665-643>646-221100-
LAKE MICHIGAN

STATION/POSITION TIME  TEMP    WIND        PRES    WAVE
                       AIR SEA DIR/SP/G            HT/PER
                 (UTC) (F)     (DEG/KT/KT) (MB)    (FT/S)
S GREEN BAY BUOY 1000   69 67  200/  6/  6 1015.6
N MID LAKE BUOY  0950   69 66  170/  8/ 10 1016.7R   0
NORTHPORT PIER   0940   67     150/  5/  9 1015.9R
KEWAUNEE LAKESHO 0942   63     190/  5/  6 1015.7R
SHEBOYGAN LAKESH 1000   69     170/  8/  8 1016.4R
PORT WASHINGTON  0930   69     190/  1/  2 1017.6R
ATWATER BUOY     0909   68 66  150/  4/  4 1017.1
MILWAUKEE LAKESH 0950   71     170/  2/  2   N/A
S MID LAKE BUOY  0950   72 69  190/  8/  8 1017.4R   1
KENOSHA   LAKESH 1000   75     230/  3/  8 1017.3
$$

TC  - TEMPERATURE IN CELSIUS
VSB - VISIBILITY IN STATUTE MILES
WCI - WIND CHILL INDEX
HX  - HEAT INDEX





USA.gov is the U.S. government's official web portal to all federal, state and local government web resources and services.